Time,TemperatureF,DewpointF,PressureIn,WindDirection,WindDirectionDegrees,WindSpeedMPH,WindSpeedGustMPH,Humidity,HourlyPrecipIn,Conditions,Clouds,dailyrainin,SoftwareType,DateUTC
2013-11-30 00:00:00,26.9,22.1,30.50,East,90,3.0,3.0,82,0.00,,,0.02,Wunderground v.1.15,2013-11-30 05:00:00,
2013-11-30 00:05:00,26.9,22.1,30.50,East,81,2.0,3.0,82,0.00,,,0.00,Wunderground v.1.15,2013-11-30 05:05:00,
2013-11-30 00:10:00,26.7,21.7,30.49,East,91,2.0,2.0,81,0.00,,,0.00,Wunderground v.1.15,2013-11-30 05:10:00,
2013-11-30 00:15:00,26.4,21.4,30.50,East,79,2.0,2.0,81,0.00,,,0.00,Wunderground v.1.15,2013-11-30 05:15:00,
2013-11-30 00:20:00,26.5,21.7,30.49,East,95,3.0,4.0,82,0.00,,,0.00,Wunderground v.1.15,2013-11-30 05:20:00,
2013-11-30 00:30:00,26.3,21.3,30.49,East,91,2.0,3.0,81,0.00,,,0.00,Wunderground v.1.15,2013-11-30 05:30:00,
2013-11-30 00:35:00,26.3,21.3,30.49,ENE,78,3.0,3.0,81,0.00,,,0.00,Wunderground v.1.15,2013-11-30 05:35:00,
2013-11-30 00:40:00,26.3,21.3,30.49,ESE,121,3.0,4.0,81,0.00,,,0.00,Wunderground v.1.15,2013-11-30 05:40:00,
2013-11-30 00:45:00,26.4,21.4,30.49,South,179,2.0,4.0,81,0.00,,,0.00,Wunderground v.1.15,2013-11-30 05:45:00,
2013-11-30 00:55:00,26.6,21.8,30.48,SE,134,2.0,5.0,82,0.00,,,0.00,Wunderground v.1.15,2013-11-30 05:55:00,
2013-11-30 01:00:00,26.7,21.7,30.48,ESE,122,1.0,1.0,81,0.00,,,0.00,Wunderground v.1.15,2013-11-30 06:00:00,
2013-11-30 01:05:00,26.7,21.7,30.47,ESE,113,2.0,2.0,81,0.00,,,0.00,Wunderground v.1.15,2013-11-30 06:05:00,
2013-11-30 01:15:00,26.8,21.8,30.47,ESE,107,4.0,7.0,81,0.00,,,0.00,Wunderground v.1.15,2013-11-30 06:15:00,
2013-11-30 01:25:00,26.8,21.8,30.46,SE,142,3.0,8.0,81,0.00,,,0.00,Wunderground v.1.15,2013-11-30 06:25:00,
2013-11-30 01:30:00,26.7,21.7,30.46,ENE,57,3.0,4.0,81,0.00,,,0.00,Wunderground v.1.15,2013-11-30 06:30:00,
2013-11-30 01:35:00,26.7,21.7,30.46,East,81,3.0,4.0,81,0.00,,,0.00,Wunderground v.1.15,2013-11-30 06:35:00,
2013-11-30 01:40:00,26.6,21.6,30.46,East,90,4.0,4.0,81,0.00,,,0.00,Wunderground v.1.15,2013-11-30 06:40:00,
2013-11-30 01:45:00,26.7,21.9,30.45,ESE,105,3.0,6.0,82,0.00,,,0.00,Wunderground v.1.15,2013-11-30 06:45:00,
2013-11-30 01:50:00,26.9,21.8,30.45,ESE,122,3.0,4.0,81,0.00,,,0.00,Wunderground v.1.15,2013-11-30 06:50:00,
2013-11-30 02:00:00,26.9,22.1,30.46,SSE,148,3.0,8.0,82,0.00,,,0.00,Wunderground v.1.15,2013-11-30 07:00:00,
2013-11-30 02:05:00,27.0,21.9,30.45,SE,144,2.0,8.0,81,0.00,,,0.00,Wunderground v.1.15,2013-11-30 07:05:00,
2013-11-30 02:15:00,26.9,21.8,30.44,East,93,3.0,7.0,81,0.00,,,0.00,Wunderground v.1.15,2013-11-30 07:15:00,
2013-11-30 02:20:00,26.9,21.8,30.45,ENE,70,3.0,3.0,81,0.00,,,0.00,Wunderground v.1.15,2013-11-30 07:20:00,
2013-11-30 02:30:00,26.9,22.1,30.44,ESE,108,4.0,5.0,82,0.00,,,0.00,Wunderground v.1.15,2013-11-30 07:30:00,
2013-11-30 02:35:00,26.9,22.1,30.44,East,101,3.0,5.0,82,0.00,,,0.00,Wunderground v.1.15,2013-11-30 07:35:00,
2013-11-30 02:40:00,26.9,21.8,30.44,ESE,114,3.0,3.0,81,0.00,,,0.00,Wunderground v.1.15,2013-11-30 07:40:00,
2013-11-30 02:45:00,26.9,21.8,30.44,NE,38,3.0,3.0,81,0.00,,,0.00,Wunderground v.1.15,2013-11-30 07:45:00,
2013-11-30 02:50:00,26.9,21.8,30.44,East,82,3.0,3.0,81,0.00,,,0.00,Wunderground v.1.15,2013-11-30 07:50:00,
2013-11-30 02:55:00,27.0,21.9,30.44,East,82,4.0,4.0,81,0.00,,,0.00,Wunderground v.1.15,2013-11-30 07:55:00,
2013-11-30 03:05:00,27.1,21.7,30.43,NNE,28,3.0,7.0,80,0.00,,,0.00,Wunderground v.1.15,2013-11-30 08:05:00,
2013-11-30 03:15:00,27.4,21.7,30.43,East,86,4.0,4.0,79,0.00,,,0.00,Wunderground v.1.15,2013-11-30 08:15:00,
2013-11-30 03:20:00,27.5,21.8,30.42,ESE,113,3.0,5.0,79,0.00,,,0.00,Wunderground v.1.15,2013-11-30 08:20:00,
2013-11-30 03:30:00,27.7,22.3,30.42,East,82,4.0,6.0,80,0.00,,,0.00,Wunderground v.1.15,2013-11-30 08:30:00,
2013-11-30 03:35:00,27.8,22.1,30.42,SE,136,3.0,6.0,79,0.00,,,0.00,Wunderground v.1.15,2013-11-30 08:35:00,
2013-11-30 03:40:00,27.8,21.8,30.41,SE,130,3.0,7.0,78,0.00,,,0.00,Wunderground v.1.15,2013-11-30 08:40:00,
2013-11-30 03:50:00,28.0,22.3,30.40,ESE,113,2.0,2.0,79,0.00,,,0.00,Wunderground v.1.15,2013-11-30 08:50:00,
2013-11-30 03:55:00,28.0,22.3,30.40,NE,42,2.0,3.0,79,0.00,,,0.00,Wunderground v.1.15,2013-11-30 08:55:00,
2013-11-30 04:00:00,28.1,22.4,30.40,ENE,63,2.0,2.0,79,0.00,,,0.00,Wunderground v.1.15,2013-11-30 09:00:00,
2013-11-30 04:05:00,28.1,22.4,30.40,NNE,29,3.0,3.0,79,0.00,,,0.00,Wunderground v.1.15,2013-11-30 09:05:00,
2013-11-30 04:15:00,28.1,22.4,30.39,East,87,2.0,2.0,79,0.00,,,0.00,Wunderground v.1.15,2013-11-30 09:15:00,
2013-11-30 04:20:00,28.1,22.4,30.39,ESE,105,2.0,2.0,79,0.00,,,0.00,Wunderground v.1.15,2013-11-30 09:20:00,
2013-11-30 04:25:00,28.1,22.7,30.39,SE,140,1.0,2.0,80,0.00,,,0.00,Wunderground v.1.15,2013-11-30 09:25:00,
2013-11-30 04:30:00,28.1,22.4,30.39,ESE,109,1.0,1.0,79,0.00,,,0.00,Wunderground v.1.15,2013-11-30 09:30:00,
2013-11-30 04:35:00,28.1,22.7,30.38,ESE,108,1.0,2.0,80,0.00,,,0.00,Wunderground v.1.15,2013-11-30 09:35:00,
2013-11-30 04:45:00,28.2,22.5,30.38,ESE,106,3.0,6.0,79,0.00,,,0.00,Wunderground v.1.15,2013-11-30 09:45:00,
2013-11-30 04:50:00,28.2,22.5,30.38,East,101,2.0,3.0,79,0.00,,,0.00,Wunderground v.1.15,2013-11-30 09:50:00,
2013-11-30 04:55:00,28.3,22.6,30.37,East,98,2.0,3.0,79,0.00,,,0.00,Wunderground v.1.15,2013-11-30 09:55:00,
2013-11-30 05:00:00,28.3,22.6,30.37,SE,128,2.0,2.0,79,0.00,,,0.00,Wunderground v.1.15,2013-11-30 10:00:00,
2013-11-30 05:05:00,28.3,22.3,30.36,SSE,148,2.0,2.0,78,0.00,,,0.00,Wunderground v.1.15,2013-11-30 10:05:00,
2013-11-30 05:15:00,28.2,22.2,30.36,ESE,123,2.0,2.0,78,0.00,,,0.00,Wunderground v.1.15,2013-11-30 10:15:00,
2013-11-30 05:20:00,28.1,22.1,30.35,SSE,148,2.0,2.0,78,0.00,,,0.00,Wunderground v.1.15,2013-11-30 10:20:00,
2013-11-30 05:25:00,28.1,22.1,30.35,SE,146,2.0,2.0,78,0.00,,,0.00,Wunderground v.1.15,2013-11-30 10:25:00,
2013-11-30 05:30:00,28.1,21.8,30.35,East,90,3.0,3.0,77,0.00,,,0.00,Wunderground v.1.15,2013-11-30 10:30:00,
2013-11-30 05:35:00,28.1,21.8,30.35,East,100,4.0,4.0,77,0.00,,,0.00,Wunderground v.1.15,2013-11-30 10:35:00,
2013-11-30 05:40:00,28.0,22.0,30.34,ESE,103,3.0,4.0,78,0.00,,,0.00,Wunderground v.1.15,2013-11-30 10:40:00,
2013-11-30 05:50:00,27.9,21.9,30.33,East,101,2.0,2.0,78,0.00,,,0.00,Wunderground v.1.15,2013-11-30 10:50:00,
2013-11-30 05:55:00,27.9,21.9,30.33,SSE,152,2.0,4.0,78,0.00,,,0.00,Wunderground v.1.15,2013-11-30 10:55:00,
2013-11-30 06:00:00,27.9,21.9,30.33,SE,130,2.0,2.0,78,0.00,,,0.00,Wunderground v.1.15,2013-11-30 11:00:00,
2013-11-30 06:05:00,27.9,21.9,30.33,East,98,3.0,4.0,78,0.00,,,0.00,Wunderground v.1.15,2013-11-30 11:05:00,
2013-11-30 06:15:00,27.9,21.9,30.32,SE,126,2.0,2.0,78,0.00,,,0.00,Wunderground v.1.15,2013-11-30 11:15:00,
2013-11-30 06:20:00,28.0,22.3,30.32,SSE,159,2.0,4.0,79,0.00,,,0.00,Wunderground v.1.15,2013-11-30 11:20:00,
2013-11-30 06:25:00,28.1,22.1,30.32,SE,140,2.0,4.0,78,0.00,,,0.00,Wunderground v.1.15,2013-11-30 11:25:00,
2013-11-30 06:30:00,28.1,22.4,30.31,East,84,2.0,6.0,79,0.00,,,0.00,Wunderground v.1.15,2013-11-30 11:30:00,
2013-11-30 06:35:00,28.1,22.4,30.31,East,99,1.0,6.0,79,0.00,,,0.00,Wunderground v.1.15,2013-11-30 11:35:00,
2013-11-30 06:40:00,28.1,22.4,30.31,East,99,1.0,5.0,79,0.00,,,0.00,Wunderground v.1.15,2013-11-30 11:40:00,
2013-11-30 06:45:00,28.3,22.6,30.31,East,83,2.0,5.0,79,0.00,,,0.00,Wunderground v.1.15,2013-11-30 11:45:00,
2013-11-30 06:55:00,28.4,22.7,30.30,East,79,2.0,3.0,79,0.00,,,0.00,Wunderground v.1.15,2013-11-30 11:55:00,
2013-11-30 07:00:00,28.4,22.7,30.30,SE,127,2.0,5.0,79,0.00,,,0.00,Wunderground v.1.15,2013-11-30 12:00:00,
2013-11-30 07:05:00,28.4,22.7,30.30,ESE,123,3.0,5.0,79,0.00,,,0.00,Wunderground v.1.15,2013-11-30 12:05:00,
2013-11-30 07:15:00,28.4,22.7,30.29,SE,138,2.0,3.0,79,0.00,,,0.00,Wunderground v.1.15,2013-11-30 12:15:00,
2013-11-30 07:25:00,28.5,22.8,30.29,SE,139,2.0,3.0,79,0.00,,,0.00,Wunderground v.1.15,2013-11-30 12:25:00,
2013-11-30 07:30:00,28.5,22.8,30.28,ESE,118,2.0,3.0,79,0.00,,,0.00,Wunderground v.1.15,2013-11-30 12:30:00,
2013-11-30 07:40:00,28.4,23.0,30.28,ENE,74,2.0,2.0,80,0.00,,,0.00,Wunderground v.1.15,2013-11-30 12:40:00,
2013-11-30 07:45:00,28.4,23.0,30.28,NE,55,1.0,2.0,80,0.00,,,0.00,Wunderground v.1.15,2013-11-30 12:45:00,
2013-11-30 07:50:00,28.4,23.0,30.28,ENE,74,2.0,2.0,80,0.00,,,0.00,Wunderground v.1.15,2013-11-30 12:50:00,
2013-11-30 07:55:00,28.5,23.1,30.28,East,97,2.0,2.0,80,0.00,,,0.00,Wunderground v.1.15,2013-11-30 12:55:00,
2013-11-30 08:05:00,28.5,23.4,30.28,SE,132,1.0,3.0,81,0.00,,,0.00,Wunderground v.1.15,2013-11-30 13:05:00,
2013-11-30 08:15:00,28.7,23.6,30.27,East,91,2.0,2.0,81,0.00,,,0.00,Wunderground v.1.15,2013-11-30 13:15:00,
2013-11-30 08:20:00,28.8,23.7,30.27,SE,138,2.0,6.0,81,0.00,,,0.00,Wunderground v.1.15,2013-11-30 13:20:00,
2013-11-30 08:25:00,28.9,23.8,30.27,ESE,115,2.0,6.0,81,0.00,,,0.00,Wunderground v.1.15,2013-11-30 13:25:00,
2013-11-30 08:35:00,28.9,23.8,30.26,ENE,75,2.0,4.0,81,0.00,,,0.00,Wunderground v.1.15,2013-11-30 13:35:00,
2013-11-30 08:40:00,28.9,23.8,30.26,ENE,75,1.0,1.0,81,0.00,,,0.00,Wunderground v.1.15,2013-11-30 13:40:00,
2013-11-30 08:45:00,-999.9,-99.9,30.25,North,32767,-999.0,1.0,255,-99.99,,,0.00,Wunderground v.1.15,2013-11-30 13:45:00,
2013-11-30 08:50:00,-999.9,-99.9,30.25,North,32767,-999.0,0.0,255,-99.99,,,0.00,Wunderground v.1.15,2013-11-30 13:50:00,
2013-11-30 08:55:00,-999.9,-99.9,30.25,North,32767,-999.0,0.0,255,-99.99,,,0.00,Wunderground v.1.15,2013-11-30 13:55:00,
2013-11-30 09:05:00,-999.9,-99.9,30.25,North,32767,-999.0,0.0,255,-99.99,,,0.00,Wunderground v.1.15,2013-11-30 14:05:00,
2013-11-30 09:15:00,-999.9,-99.9,30.24,North,32767,-999.0,0.0,255,-99.99,,,0.00,Wunderground v.1.15,2013-11-30 14:15:00,
2013-11-30 09:20:00,-999.9,-99.9,30.24,North,32767,-999.0,0.0,255,-99.99,,,0.00,Wunderground v.1.15,2013-11-30 14:20:00,
2013-11-30 09:25:00,-999.9,-99.9,30.24,North,32767,-999.0,0.0,255,-99.99,,,0.00,Wunderground v.1.15,2013-11-30 14:25:00,
2013-11-30 09:30:00,-999.9,-99.9,30.23,North,32767,-999.0,0.0,255,-99.99,,,0.00,Wunderground v.1.15,2013-11-30 14:30:00,
2013-11-30 09:40:00,30.5,25.7,30.23,ESE,119,2.0,2.0,82,0.00,,,0.00,Wunderground v.1.15,2013-11-30 14:40:00,
2013-11-30 09:45:00,30.6,25.8,30.22,East,97,2.0,2.0,82,0.00,,,0.00,Wunderground v.1.15,2013-11-30 14:45:00,
2013-11-30 09:50:00,30.8,26.2,30.22,SE,130,2.0,2.0,83,0.00,,,0.00,Wunderground v.1.15,2013-11-30 14:50:00,
2013-11-30 09:55:00,31.0,26.4,30.22,ESE,109,2.0,2.0,83,0.00,,,0.00,Wunderground v.1.15,2013-11-30 14:55:00,
2013-11-30 10:00:00,31.2,26.3,30.22,ENE,75,1.0,1.0,82,0.00,,,0.00,Wunderground v.1.15,2013-11-30 15:00:00,
2013-11-30 10:05:00,31.4,26.5,30.22,ENE,69,1.0,4.0,82,0.00,,,0.00,Wunderground v.1.15,2013-11-30 15:05:00,
2013-11-30 10:15:00,31.4,26.5,30.21,East,100,1.0,1.0,82,0.00,,,0.00,Wunderground v.1.15,2013-11-30 15:15:00,
2013-11-30 10:20:00,31.5,26.9,30.21,SSE,153,1.0,6.0,83,0.00,,,0.00,Wunderground v.1.15,2013-11-30 15:20:00,
2013-11-30 10:25:00,31.8,27.2,30.21,SE,136,2.0,6.0,83,0.00,,,0.00,Wunderground v.1.15,2013-11-30 15:25:00,
2013-11-30 10:30:00,32.0,27.1,30.20,ESE,102,2.0,6.0,82,0.00,,,0.00,Wunderground v.1.15,2013-11-30 15:30:00,
2013-11-30 10:35:00,32.3,27.4,30.20,SSW,202,2.0,7.0,82,0.00,,,0.00,Wunderground v.1.15,2013-11-30 15:35:00,
2013-11-30 10:45:00,32.7,27.8,30.20,SSE,161,3.0,3.0,82,0.00,,,0.00,Wunderground v.1.15,2013-11-30 15:45:00,
2013-11-30 10:50:00,32.9,27.7,30.19,SE,128,3.0,3.0,81,0.00,,,0.00,Wunderground v.1.15,2013-11-30 15:50:00,
2013-11-30 10:55:00,33.1,28.2,30.19,ESE,106,2.0,3.0,82,0.00,,,0.00,Wunderground v.1.15,2013-11-30 15:55:00,
2013-11-30 11:00:00,33.3,28.1,30.19,SSE,154,2.0,2.0,81,0.00,,,0.00,Wunderground v.1.15,2013-11-30 16:00:00,
2013-11-30 11:05:00,33.5,28.3,30.18,East,88,3.0,4.0,81,0.00,,,0.00,Wunderground v.1.15,2013-11-30 16:05:00,
2013-11-30 11:15:00,33.9,28.7,30.18,SE,132,3.0,3.0,81,0.00,,,0.00,Wunderground v.1.15,2013-11-30 16:15:00,
2013-11-30 11:20:00,34.0,28.8,30.18,SSE,153,2.0,3.0,81,0.00,,,0.00,Wunderground v.1.15,2013-11-30 16:20:00,
2013-11-30 11:30:00,34.2,29.0,30.17,South,186,3.0,3.0,81,0.00,,,0.00,Wunderground v.1.15,2013-11-30 16:30:00,
2013-11-30 11:35:00,34.4,29.2,30.17,East,99,3.0,3.0,81,0.00,,,0.00,Wunderground v.1.15,2013-11-30 16:35:00,
2013-11-30 11:40:00,34.4,29.2,30.17,SSW,203,2.0,4.0,81,0.00,,,0.00,Wunderground v.1.15,2013-11-30 16:40:00,
2013-11-30 11:50:00,34.4,29.5,30.17,South,190,2.0,7.0,82,0.00,,,0.00,Wunderground v.1.15,2013-11-30 16:50:00,
2013-11-30 11:55:00,34.5,29.6,30.17,SSW,199,2.0,7.0,82,0.00,,,0.00,Wunderground v.1.15,2013-11-30 16:55:00,
2013-11-30 12:00:00,34.6,29.7,30.17,SSE,156,2.0,3.0,82,0.00,,,0.00,Wunderground v.1.15,2013-11-30 17:00:00,
2013-11-30 12:05:00,34.7,30.1,30.17,SSW,202,1.0,4.0,83,0.00,,,0.00,Wunderground v.1.15,2013-11-30 17:05:00,
2013-11-30 12:15:00,35.0,30.7,30.16,SE,138,2.0,6.0,84,0.00,,,0.00,Wunderground v.1.15,2013-11-30 17:15:00,
2013-11-30 12:25:00,35.3,30.9,30.15,SW,214,3.0,5.0,84,0.00,,,0.00,Wunderground v.1.15,2013-11-30 17:25:00,
2013-11-30 12:30:00,35.5,31.4,30.15,SSW,198,2.0,2.0,85,0.00,,,0.00,Wunderground v.1.15,2013-11-30 17:30:00,
2013-11-30 12:35:00,35.6,31.5,30.14,SE,127,2.0,2.0,85,0.00,,,0.00,Wunderground v.1.15,2013-11-30 17:35:00,
2013-11-30 12:40:00,35.7,31.6,30.14,South,182,2.0,2.0,85,0.00,,,0.00,Wunderground v.1.15,2013-11-30 17:40:00,
2013-11-30 12:45:00,35.8,31.7,30.14,South,172,2.0,2.0,85,0.00,,,0.00,Wunderground v.1.15,2013-11-30 17:45:00,
2013-11-30 12:55:00,36.2,32.1,30.14,SSW,207,4.0,5.0,85,0.00,,,0.00,Wunderground v.1.15,2013-11-30 17:55:00,
2013-11-30 13:05:00,36.5,32.1,30.13,SSW,211,6.0,6.0,84,0.00,,,0.00,Wunderground v.1.15,2013-11-30 18:05:00,
2013-11-30 13:15:00,36.6,32.2,30.13,SSW,194,5.0,7.0,84,0.00,,,0.01,Wunderground v.1.15,2013-11-30 18:15:00,
2013-11-30 13:20:00,36.7,32.3,30.13,SSW,209,6.0,6.0,84,0.00,,,0.01,Wunderground v.1.15,2013-11-30 18:20:00,
2013-11-30 13:30:00,36.9,32.8,30.12,SSW,200,5.0,10.0,85,0.05,,,0.02,Wunderground v.1.15,2013-11-30 18:30:00,
2013-11-30 13:35:00,37.0,32.9,30.12,SSW,199,5.0,10.0,85,0.05,,,0.02,Wunderground v.1.15,2013-11-30 18:35:00,
2013-11-30 13:40:00,37.0,32.9,30.11,SW,215,5.0,6.0,85,0.05,,,0.02,Wunderground v.1.15,2013-11-30 18:40:00,
2013-11-30 13:45:00,37.1,33.0,30.11,SW,215,5.0,6.0,85,0.00,,,0.02,Wunderground v.1.15,2013-11-30 18:45:00,
2013-11-30 13:50:00,37.2,33.1,30.11,South,184,6.0,6.0,85,0.00,,,0.03,Wunderground v.1.15,2013-11-30 18:50:00,
2013-11-30 13:55:00,37.1,33.0,30.11,South,186,5.0,6.0,85,0.00,,,0.03,Wunderground v.1.15,2013-11-30 18:55:00,
2013-11-30 14:05:00,37.0,32.9,30.10,SSW,196,3.0,7.0,85,0.00,,,0.03,Wunderground v.1.15,2013-11-30 19:05:00,
2013-11-30 14:15:00,37.0,32.9,30.10,SE,144,2.0,4.0,85,0.00,,,0.04,Wunderground v.1.15,2013-11-30 19:15:00,
2013-11-30 14:20:00,37.0,32.9,30.09,SE,135,1.0,1.0,85,0.00,,,0.04,Wunderground v.1.15,2013-11-30 19:20:00,
2013-11-30 14:25:00,37.0,32.9,30.09,SSW,198,1.0,4.0,85,0.00,,,0.04,Wunderground v.1.15,2013-11-30 19:25:00,
2013-11-30 14:35:00,37.1,33.0,30.09,SSE,165,2.0,4.0,85,0.00,,,0.05,Wunderground v.1.15,2013-11-30 19:35:00,
2013-11-30 14:40:00,37.2,33.1,30.09,SE,141,1.0,1.0,85,0.00,,,0.05,Wunderground v.1.15,2013-11-30 19:40:00,
2013-11-30 14:45:00,37.3,33.2,30.08,SSW,196,1.0,2.0,85,0.05,,,0.06,Wunderground v.1.15,2013-11-30 19:45:00,
2013-11-30 14:50:00,37.3,33.2,30.08,East,91,1.0,1.0,85,0.05,,,0.06,Wunderground v.1.15,2013-11-30 19:50:00,
2013-11-30 14:55:00,37.5,33.4,30.08,SSW,202,1.0,5.0,85,0.05,,,0.06,Wunderground v.1.15,2013-11-30 19:55:00,
2013-11-30 15:00:00,37.6,33.5,30.08,SW,220,3.0,4.0,85,0.04,,,0.06,Wunderground v.1.15,2013-11-30 20:00:00,
2013-11-30 15:05:00,37.7,33.6,30.08,SSW,194,3.0,4.0,85,0.00,,,0.06,Wunderground v.1.15,2013-11-30 20:05:00,
2013-11-30 15:15:00,37.7,33.6,30.07,South,186,1.0,8.0,85,0.00,,,0.07,Wunderground v.1.15,2013-11-30 20:15:00,
2013-11-30 15:20:00,37.8,33.4,30.07,SE,129,1.0,1.0,84,0.04,,,0.08,Wunderground v.1.15,2013-11-30 20:20:00,
2013-11-30 15:25:00,37.7,33.3,30.07,SE,132,1.0,1.0,84,0.04,,,0.08,Wunderground v.1.15,2013-11-30 20:25:00,
2013-11-30 15:30:00,37.5,33.1,30.07,ESE,121,1.0,1.0,84,0.04,,,0.08,Wunderground v.1.15,2013-11-30 20:30:00,
2013-11-30 15:40:00,37.1,32.7,30.07,East,99,0.0,0.0,84,0.00,,,0.08,Wunderground v.1.15,2013-11-30 20:40:00,
2013-11-30 15:45:00,37.1,32.7,30.07,South,178,0.0,0.0,84,0.00,,,0.08,Wunderground v.1.15,2013-11-30 20:45:00,
2013-11-30 15:50:00,37.2,32.8,30.07,South,190,1.0,1.0,84,0.00,,,0.09,Wunderground v.1.15,2013-11-30 20:50:00,
2013-11-30 15:55:00,37.2,32.8,30.07,SE,132,0.0,1.0,84,0.00,,,0.09,Wunderground v.1.15,2013-11-30 20:55:00,
2013-11-30 16:00:00,37.3,32.9,30.07,SSW,192,0.0,7.0,84,0.00,,,0.09,Wunderground v.1.15,2013-11-30 21:00:00,
2013-11-30 16:05:00,37.4,33.0,30.07,SE,140,1.0,7.0,84,0.00,,,0.09,Wunderground v.1.15,2013-11-30 21:05:00,
2013-11-30 16:15:00,37.4,33.0,30.07,SE,131,1.0,1.0,84,0.00,,,0.10,Wunderground v.1.15,2013-11-30 21:15:00,
2013-11-30 16:20:00,37.3,32.9,30.07,SE,125,0.0,0.0,84,0.00,,,0.10,Wunderground v.1.15,2013-11-30 21:20:00,
2013-11-30 16:30:00,36.7,32.3,30.07,SE,125,0.0,0.0,84,0.00,,,0.10,Wunderground v.1.15,2013-11-30 21:30:00,
2013-11-30 16:35:00,36.4,32.3,30.07,SE,125,0.0,0.0,85,0.00,,,0.10,Wunderground v.1.15,2013-11-30 21:35:00,
2013-11-30 16:40:00,36.1,32.0,30.07,SE,125,0.0,0.0,85,0.00,,,0.10,Wunderground v.1.15,2013-11-30 21:40:00,
2013-11-30 16:50:00,36.0,31.9,30.08,SE,125,0.0,0.0,85,0.00,,,0.10,Wunderground v.1.15,2013-11-30 21:50:00,
2013-11-30 16:55:00,35.9,31.8,30.08,SE,125,0.0,0.0,85,0.00,,,0.10,Wunderground v.1.15,2013-11-30 21:55:00,
2013-11-30 17:00:00,35.6,31.8,30.08,SE,125,0.0,0.0,86,0.00,,,0.10,Wunderground v.1.15,2013-11-30 22:00:00,
2013-11-30 17:05:00,35.6,31.8,30.08,SE,125,0.0,0.0,86,0.00,,,0.10,Wunderground v.1.15,2013-11-30 22:05:00,
2013-11-30 17:15:00,35.8,32.0,30.08,SE,125,0.0,0.0,86,0.00,,,0.10,Wunderground v.1.15,2013-11-30 22:15:00,
2013-11-30 17:20:00,36.0,32.2,30.08,SE,125,0.0,0.0,86,0.00,,,0.10,Wunderground v.1.15,2013-11-30 22:20:00,
2013-11-30 17:25:00,36.2,32.1,30.08,SE,125,0.0,0.0,85,0.00,,,0.10,Wunderground v.1.15,2013-11-30 22:25:00,
2013-11-30 17:30:00,35.8,31.7,30.08,SE,125,0.0,0.0,85,0.00,,,0.11,Wunderground v.1.15,2013-11-30 22:30:00,
2013-11-30 17:35:00,35.7,31.9,30.08,SE,125,0.0,0.0,86,0.00,,,0.11,Wunderground v.1.15,2013-11-30 22:35:00,
2013-11-30 17:40:00,35.8,32.3,30.08,SE,125,0.0,0.0,87,0.00,,,0.11,Wunderground v.1.15,2013-11-30 22:40:00,
2013-11-30 17:45:00,35.9,32.4,30.08,SE,125,0.0,0.0,87,0.00,,,0.11,Wunderground v.1.15,2013-11-30 22:45:00,
2013-11-30 17:55:00,36.3,33.1,30.08,South,186,0.0,2.0,88,0.00,,,0.11,Wunderground v.1.15,2013-11-30 22:55:00,
2013-11-30 18:00:00,37.0,34.1,30.08,SSW,195,1.0,5.0,89,0.00,,,0.11,Wunderground v.1.15,2013-11-30 23:00:00,
2013-11-30 18:05:00,37.6,34.4,30.08,SSW,200,2.0,7.0,88,0.00,,,0.11,Wunderground v.1.15,2013-11-30 23:05:00,
2013-11-30 18:15:00,38.4,34.9,30.08,SSW,204,4.0,6.0,87,0.00,,,0.12,Wunderground v.1.15,2013-11-30 23:15:00,
2013-11-30 18:25:00,38.6,35.1,30.08,SSW,206,4.0,10.0,87,0.00,,,0.12,Wunderground v.1.15,2013-11-30 23:25:00,
2013-11-30 18:30:00,38.5,35.0,30.08,SW,215,4.0,8.0,87,0.00,,,0.12,Wunderground v.1.15,2013-11-30 23:30:00,
2013-11-30 18:35:00,38.5,35.0,30.08,SSW,209,5.0,8.0,87,0.00,,,0.12,Wunderground v.1.15,2013-11-30 23:35:00,
2013-11-30 18:40:00,38.7,35.2,30.08,SW,227,5.0,7.0,87,0.00,,,0.12,Wunderground v.1.15,2013-11-30 23:40:00,
2013-11-30 18:45:00,38.6,35.1,30.08,SW,231,6.0,7.0,87,0.00,,,0.13,Wunderground v.1.15,2013-11-30 23:45:00,
2013-11-30 18:50:00,38.5,35.0,30.08,SW,236,6.0,7.0,87,0.00,,,0.13,Wunderground v.1.15,2013-11-30 23:50:00,
2013-11-30 19:00:00,38.6,35.4,30.08,WSW,242,8.0,8.0,88,0.04,,,0.14,Wunderground v.1.15,2013-12-01 00:00:00,
2013-11-30 19:05:00,38.5,34.7,30.08,WSW,246,7.0,8.0,86,0.04,,,0.14,Wunderground v.1.15,2013-12-01 00:05:00,
2013-11-30 19:15:00,38.5,35.0,30.08,WSW,249,7.0,8.0,87,0.00,,,0.14,Wunderground v.1.15,2013-12-01 00:15:00,
2013-11-30 19:20:00,38.4,34.6,30.08,WSW,250,6.0,6.0,86,0.00,,,0.14,Wunderground v.1.15,2013-12-01 00:20:00,
2013-11-30 19:30:00,38.4,34.6,30.08,WSW,257,6.0,6.0,86,0.00,,,0.15,Wunderground v.1.15,2013-12-01 00:30:00,
2013-11-30 19:35:00,38.2,34.4,30.09,WSW,252,6.0,7.0,86,0.00,,,0.15,Wunderground v.1.15,2013-12-01 00:35:00,
2013-11-30 19:40:00,38.3,34.2,30.09,WSW,258,7.0,7.0,85,0.00,,,0.15,Wunderground v.1.15,2013-12-01 00:40:00,
2013-11-30 19:50:00,38.2,33.8,30.09,WSW,252,7.0,7.0,84,0.00,,,0.16,Wunderground v.1.15,2013-12-01 00:50:00,
2013-11-30 19:55:00,38.2,34.1,30.09,West,261,6.0,7.0,85,0.00,,,0.16,Wunderground v.1.15,2013-12-01 00:55:00,
2013-11-30 20:05:00,38.0,33.6,30.08,WSW,253,6.0,6.0,84,0.00,,,0.16,Wunderground v.1.15,2013-12-01 01:05:00,
2013-11-30 20:15:00,38.0,33.9,30.08,West,260,6.0,6.0,85,0.00,,,0.16,Wunderground v.1.15,2013-12-01 01:15:00,
2013-11-30 20:20:00,37.9,33.5,30.08,West,261,5.0,6.0,84,0.00,,,0.16,Wunderground v.1.15,2013-12-01 01:20:00,
2013-11-30 20:25:00,37.9,33.5,30.08,West,264,5.0,6.0,84,0.00,,,0.16,Wunderground v.1.15,2013-12-01 01:25:00,
2013-11-30 20:30:00,37.8,33.7,30.08,West,280,5.0,5.0,85,0.00,,,0.16,Wunderground v.1.15,2013-12-01 01:30:00,
2013-11-30 20:40:00,37.0,33.2,30.08,West,262,1.0,1.0,86,0.00,,,0.17,Wunderground v.1.15,2013-12-01 01:40:00,
2013-11-30 20:45:00,36.9,33.1,30.08,West,264,1.0,1.0,86,0.00,,,0.17,Wunderground v.1.15,2013-12-01 01:45:00,
2013-11-30 20:50:00,36.8,33.0,30.08,West,275,1.0,1.0,86,0.00,,,0.17,Wunderground v.1.15,2013-12-01 01:50:00,
2013-11-30 20:55:00,36.7,32.6,30.08,West,280,1.0,2.0,85,0.00,,,0.17,Wunderground v.1.15,2013-12-01 01:55:00,
2013-11-30 21:00:00,36.7,32.9,30.08,West,276,1.0,2.0,86,0.00,,,0.17,Wunderground v.1.15,2013-12-01 02:00:00,
2013-11-30 21:05:00,36.8,33.3,30.08,West,279,2.0,2.0,87,0.00,,,0.17,Wunderground v.1.15,2013-12-01 02:05:00,
2013-11-30 21:15:00,36.7,32.9,30.08,NNW,344,1.0,2.0,86,0.00,,,0.17,Wunderground v.1.15,2013-12-01 02:15:00,
2013-11-30 21:20:00,36.6,33.1,30.08,NW,325,0.0,0.0,87,0.00,,,0.17,Wunderground v.1.15,2013-12-01 02:20:00,
2013-11-30 21:25:00,36.5,33.0,30.08,NNW,336,0.0,0.0,87,0.00,,,0.17,Wunderground v.1.15,2013-12-01 02:25:00,
2013-11-30 21:30:00,36.4,32.9,30.08,NNW,336,0.0,0.0,87,0.00,,,0.17,Wunderground v.1.15,2013-12-01 02:30:00,
2013-11-30 21:35:00,36.3,32.8,30.08,NNW,336,0.0,1.0,87,0.00,,,0.17,Wunderground v.1.15,2013-12-01 02:35:00,
2013-11-30 21:45:00,36.0,32.8,30.09,NNW,333,1.0,1.0,88,0.00,,,0.17,Wunderground v.1.15,2013-12-01 02:45:00,
2013-11-30 21:50:00,35.9,32.7,30.08,NNW,346,0.0,1.0,88,0.00,,,0.17,Wunderground v.1.15,2013-12-01 02:50:00,
2013-11-30 21:55:00,35.7,32.5,30.09,NNW,329,0.0,1.0,88,0.00,,,0.17,Wunderground v.1.15,2013-12-01 02:55:00,
2013-11-30 22:05:00,35.3,32.1,30.08,NNW,329,0.0,0.0,88,0.00,,,0.17,Wunderground v.1.15,2013-12-01 03:05:00,
2013-11-30 22:15:00,35.1,32.2,30.09,NNW,329,0.0,0.0,89,0.00,,,0.17,Wunderground v.1.15,2013-12-01 03:15:00,
2013-11-30 22:20:00,35.1,32.2,30.08,NNW,329,0.0,0.0,89,0.00,,,0.17,Wunderground v.1.15,2013-12-01 03:20:00,
2013-11-30 22:30:00,34.9,32.0,30.08,NNW,329,0.0,0.0,89,0.00,,,0.17,Wunderground v.1.15,2013-12-01 03:30:00,
2013-11-30 22:35:00,34.8,31.9,30.08,NNW,329,0.0,0.0,89,0.00,,,0.17,Wunderground v.1.15,2013-12-01 03:35:00,
2013-11-30 22:40:00,34.8,31.9,30.08,NNW,329,0.0,0.0,89,0.00,,,0.17,Wunderground v.1.15,2013-12-01 03:40:00,
2013-11-30 22:50:00,34.6,31.7,30.08,NNW,329,0.0,0.0,89,0.00,,,0.17,Wunderground v.1.15,2013-12-01 03:50:00,
2013-11-30 22:55:00,34.7,32.1,30.08,NNW,329,0.0,0.0,90,0.00,,,0.17,Wunderground v.1.15,2013-12-01 03:55:00,
2013-11-30 23:00:00,34.7,32.1,30.08,NNW,329,0.0,0.0,90,0.00,,,0.17,Wunderground v.1.15,2013-12-01 04:00:00,
2013-11-30 23:05:00,34.7,32.1,30.08,NNW,329,0.0,0.0,90,0.00,,,0.17,Wunderground v.1.15,2013-12-01 04:05:00,
2013-11-30 23:15:00,34.7,32.1,30.08,NW,325,0.0,0.0,90,0.00,,,0.17,Wunderground v.1.15,2013-12-01 04:15:00,
2013-11-30 23:25:00,34.7,32.1,30.09,NW,325,0.0,0.0,90,0.00,,,0.17,Wunderground v.1.15,2013-12-01 04:25:00,
2013-11-30 23:30:00,34.6,32.0,30.08,NW,325,0.0,0.0,90,0.00,,,0.17,Wunderground v.1.15,2013-12-01 04:30:00,
2013-11-30 23:35:00,34.6,32.0,30.08,NW,325,0.0,0.0,90,0.00,,,0.18,Wunderground v.1.15,2013-12-01 04:35:00,
2013-11-30 23:40:00,34.5,31.9,30.08,NW,325,0.0,0.0,90,0.00,,,0.18,Wunderground v.1.15,2013-12-01 04:40:00,
2013-11-30 23:45:00,34.4,31.8,30.08,NE,55,0.0,0.0,90,0.00,,,0.18,Wunderground v.1.15,2013-12-01 04:45:00,
2013-11-30 23:55:00,34.4,31.8,30.08,NE,55,0.0,0.0,90,0.00,,,0.18,Wunderground v.1.15,2013-12-01 04:55:00,